Time,TemperatureF,DewpointF,PressureIn,WindDirection,WindDirectionDegrees,WindSpeedMPH,WindSpeedGustMPH,Humidity,HourlyPrecipIn,Conditions,Clouds,dailyrainin,SoftwareType,DateUTC
2013-01-25 00:05:00,14.1,-10.4,30.16,SW,230,3.4,6.0,39,-99.99,,,-99.99,PWS SA v1.10,2013-01-25 05:05:00,
2013-01-25 00:10:00,13.6,-11.1,30.16,North,0,0.0,3.0,38,-99.99,,,-99.99,PWS SA v1.10,2013-01-25 05:10:00,
2013-01-25 00:15:00,13.6,-11.1,30.16,North,0,0.0,3.0,38,-99.99,,,-99.99,PWS SA v1.10,2013-01-25 05:15:00,
2013-01-25 00:20:00,13.5,-10.4,30.17,North,0,0.0,3.0,40,-99.99,,,-99.99,PWS SA v1.10,2013-01-25 05:20:00,
2013-01-25 00:25:00,14.1,-10.7,30.18,North,0,0.0,3.0,38,-99.99,,,-99.99,PWS SA v1.10,2013-01-25 05:25:00,
2013-01-25 00:30:00,13.8,-9.7,30.18,North,0,0.0,3.0,41,-99.99,,,-99.99,PWS SA v1.10,2013-01-25 05:30:00,
2013-01-25 00:40:00,13.6,-10.0,30.17,North,0,0.0,5.0,41,-99.99,,,-99.99,PWS SA v1.10,2013-01-25 05:40:00,
2013-01-25 00:45:00,12.6,-11.3,30.18,North,0,0.0,5.0,40,-99.99,,,-99.99,PWS SA v1.10,2013-01-25 05:45:00,
2013-01-25 00:50:00,12.7,-11.0,30.18,North,0,0.0,5.0,40,-99.99,,,-99.99,PWS SA v1.10,2013-01-25 05:50:00,
2013-01-25 00:55:00,12.7,-11.2,30.18,SW,236,5.1,8.0,40,-99.99,,,-99.99,PWS SA v1.10,2013-01-25 05:55:00,
2013-01-25 01:00:00,13.0,-11.5,30.19,NNW,331,5.1,8.0,39,-99.99,,,-99.99,PWS SA v1.10,2013-01-25 06:00:00,
2013-01-25 01:10:00,12.8,-10.9,30.19,North,0,0.0,5.0,40,-99.99,,,-99.99,PWS SA v1.10,2013-01-25 06:10:00,
2013-01-25 01:15:00,12.9,-11.1,30.18,North,0,0.0,3.0,40,-99.99,,,-99.99,PWS SA v1.10,2013-01-25 06:15:00,
2013-01-25 01:20:00,12.4,-10.9,30.19,NW,309,1.7,3.0,41,-99.99,,,-99.99,PWS SA v1.10,2013-01-25 06:20:00,
2013-01-25 01:25:00,12.6,-9.8,30.18,NE,37,1.7,3.0,43,-99.99,,,-99.99,PWS SA v1.10,2013-01-25 06:25:00,
2013-01-25 01:30:00,12.7,-10.4,30.18,NNW,327,1.7,3.0,41,-99.99,,,-99.99,PWS SA v1.10,2013-01-25 06:30:00,
2013-01-25 01:40:00,12.4,-10.6,30.19,North,0,0.0,6.0,42,-99.99,,,-99.99,PWS SA v1.10,2013-01-25 06:40:00,
2013-01-25 01:45:00,12.6,-10.0,30.20,North,0,0.0,6.0,42,-99.99,,,-99.99,PWS SA v1.10,2013-01-25 06:45:00,
2013-01-25 01:50:00,12.9,-11.0,30.20,NW,315,1.7,6.0,40,-99.99,,,-99.99,PWS SA v1.10,2013-01-25 06:50:00,
2013-01-25 01:55:00,13.2,-9.7,30.20,North,0,0.0,5.0,42,-99.99,,,-99.99,PWS SA v1.10,2013-01-25 06:55:00,
2013-01-25 02:00:00,12.5,-10.3,30.20,WNW,286,5.1,6.0,42,-99.99,,,-99.99,PWS SA v1.10,2013-01-25 07:00:00,
2013-01-25 02:10:00,12.3,-10.9,30.20,North,0,0.0,6.0,41,-99.99,,,-99.99,PWS SA v1.10,2013-01-25 07:10:00,
2013-01-25 02:15:00,12.8,-9.5,30.21,West,265,1.7,6.0,43,-99.99,,,-99.99,PWS SA v1.10,2013-01-25 07:15:00,
2013-01-25 02:20:00,12.4,-10.2,30.21,North,0,0.0,5.0,42,-99.99,,,-99.99,PWS SA v1.10,2013-01-25 07:20:00,
2013-01-25 02:25:00,12.5,-9.7,30.21,North,0,0.0,5.0,43,-99.99,,,-99.99,PWS SA v1.10,2013-01-25 07:25:00,
2013-01-25 02:30:00,12.5,-10.0,30.20,North,0,0.0,5.0,43,-99.99,,,-99.99,PWS SA v1.10,2013-01-25 07:30:00,
2013-01-25 02:35:00,12.6,-9.3,30.21,North,0,0.0,3.0,44,-99.99,,,-99.99,PWS SA v1.10,2013-01-25 07:35:00,
2013-01-25 02:40:00,12.5,-9.9,30.21,North,0,0.0,3.0,43,-99.99,,,-99.99,PWS SA v1.10,2013-01-25 07:40:00,
2013-01-25 02:50:00,12.7,-9.0,30.20,North,0,0.0,3.0,45,-99.99,,,-99.99,PWS SA v1.10,2013-01-25 07:50:00,
2013-01-25 03:00:00,12.6,-9.8,30.20,North,0,0.0,1.0,43,-99.99,,,-99.99,PWS SA v1.10,2013-01-25 08:00:00,
2013-01-25 03:05:00,12.3,-9.9,30.20,North,0,0.0,5.0,43,-99.99,,,-99.99,PWS SA v1.10,2013-01-25 08:05:00,
2013-01-25 03:10:00,12.4,-9.2,30.21,North,0,0.0,5.0,44,-99.99,,,-99.99,PWS SA v1.10,2013-01-25 08:10:00,
2013-01-25 03:15:00,12.4,-9.3,30.21,North,0,0.0,6.0,44,-99.99,,,-99.99,PWS SA v1.10,2013-01-25 08:15:00,
2013-01-25 03:20:00,12.4,-9.9,30.21,North,0,0.0,6.0,43,-99.99,,,-99.99,PWS SA v1.10,2013-01-25 08:20:00,
2013-01-25 03:25:00,12.8,-9.1,30.21,North,0,0.0,6.0,44,-99.99,,,-99.99,PWS SA v1.10,2013-01-25 08:25:00,
2013-01-25 03:35:00,12.6,-8.9,30.21,North,0,0.0,5.0,45,-99.99,,,-99.99,PWS SA v1.10,2013-01-25 08:35:00,
2013-01-25 03:40:00,12.4,-9.1,30.21,NNW,336,3.4,5.0,45,-99.99,,,-99.99,PWS SA v1.10,2013-01-25 08:40:00,
2013-01-25 03:45:00,12.4,-9.4,30.21,North,0,0.0,5.0,44,-99.99,,,-99.99,PWS SA v1.10,2013-01-25 08:45:00,
2013-01-25 03:50:00,12.7,-8.7,30.21,North,0,0.0,5.0,45,-99.99,,,-99.99,PWS SA v1.10,2013-01-25 08:50:00,
2013-01-25 03:55:00,11.9,-10.1,30.21,North,0,0.0,1.0,44,-99.99,,,-99.99,PWS SA v1.10,2013-01-25 08:55:00,
2013-01-25 04:00:00,12.2,-9.8,30.22,North,0,0.0,3.0,44,-99.99,,,-99.99,PWS SA v1.10,2013-01-25 09:00:00,
2013-01-25 04:05:00,12.5,-9.1,30.21,North,0,0.0,3.0,45,-99.99,,,-99.99,PWS SA v1.10,2013-01-25 09:05:00,
2013-01-25 04:10:00,12.6,-9.3,30.21,North,0,0.0,3.0,44,-99.99,,,-99.99,PWS SA v1.10,2013-01-25 09:10:00,
2013-01-25 04:15:00,12.5,-9.1,30.21,North,0,0.0,1.0,45,-99.99,,,-99.99,PWS SA v1.10,2013-01-25 09:15:00,
2013-01-25 04:20:00,12.2,-9.3,30.21,North,0,0.0,1.0,45,-99.99,,,-99.99,PWS SA v1.10,2013-01-25 09:20:00,
2013-01-25 04:25:00,11.9,-10.0,30.20,North,0,0.0,3.0,44,-99.99,,,-99.99,PWS SA v1.10,2013-01-25 09:25:00,
2013-01-25 04:30:00,12.2,-9.0,30.21,NNW,342,3.4,3.4,45,-99.99,,,-99.99,PWS SA v1.10,2013-01-25 09:30:00,
2013-01-25 04:35:00,12.2,-9.7,30.21,North,0,0.0,3.0,44,-99.99,,,-99.99,PWS SA v1.10,2013-01-25 09:35:00,
2013-01-25 04:40:00,12.3,-9.1,30.21,North,0,0.0,3.0,45,-99.99,,,-99.99,PWS SA v1.10,2013-01-25 09:40:00,
2013-01-25 04:45:00,12.2,-8.7,30.21,North,0,0.0,1.0,46,-99.99,,,-99.99,PWS SA v1.10,2013-01-25 09:45:00,
2013-01-25 04:55:00,11.4,-10.2,30.21,NW,317,1.7,5.0,44,-99.99,,,-99.99,PWS SA v1.10,2013-01-25 09:55:00,
2013-01-25 05:00:00,12.0,-9.2,30.22,NW,312,3.4,5.0,45,-99.99,,,-99.99,PWS SA v1.10,2013-01-25 10:00:00,
2013-01-25 05:05:00,11.9,-10.0,30.21,WSW,250,1.7,6.0,44,-99.99,,,-99.99,PWS SA v1.10,2013-01-25 10:05:00,
2013-01-25 05:10:00,12.3,-9.6,30.21,North,0,0.0,6.0,44,-99.99,,,-99.99,PWS SA v1.10,2013-01-25 10:10:00,
2013-01-25 05:15:00,12.3,-9.0,30.22,North,0,0.0,6.0,45,-99.99,,,-99.99,PWS SA v1.10,2013-01-25 10:15:00,
2013-01-25 05:20:00,12.5,-9.0,30.22,North,0,0.0,5.0,45,-99.99,,,-99.99,PWS SA v1.10,2013-01-25 10:20:00,
2013-01-25 05:25:00,12.5,-8.7,30.22,North,0,0.0,3.0,45,-99.99,,,-99.99,PWS SA v1.10,2013-01-25 10:25:00,
2013-01-25 05:35:00,12.7,-8.5,30.23,WSW,242,5.1,5.1,45,-99.99,,,-99.99,PWS SA v1.10,2013-01-25 10:35:00,
2013-01-25 05:40:00,12.4,-8.3,30.22,North,0,0.0,5.0,46,-99.99,,,-99.99,PWS SA v1.10,2013-01-25 10:40:00,
2013-01-25 05:45:00,12.6,-8.3,30.22,North,0,0.0,5.0,46,-99.99,,,-99.99,PWS SA v1.10,2013-01-25 10:45:00,
2013-01-25 05:50:00,12.0,-8.6,30.22,West,269,1.7,5.0,47,-99.99,,,-99.99,PWS SA v1.10,2013-01-25 10:50:00,
2013-01-25 05:55:00,12.0,-8.7,30.22,North,0,0.0,5.0,46,-99.99,,,-99.99,PWS SA v1.10,2013-01-25 10:55:00,
2013-01-25 06:00:00,12.1,-8.7,30.23,North,0,0.0,1.0,46,-99.99,,,-99.99,PWS SA v1.10,2013-01-25 11:00:00,
2013-01-25 06:05:00,12.0,-8.5,30.22,North,0,0.0,3.0,47,-99.99,,,-99.99,PWS SA v1.10,2013-01-25 11:05:00,
2013-01-25 06:10:00,11.7,-8.7,30.22,North,0,0.0,3.0,47,-99.99,,,-99.99,PWS SA v1.10,2013-01-25 11:10:00,
2013-01-25 06:15:00,11.8,-8.4,30.22,NNW,341,1.7,3.0,48,-99.99,,,-99.99,PWS SA v1.10,2013-01-25 11:15:00,
2013-01-25 06:20:00,11.4,-8.8,30.22,North,0,0.0,1.0,48,-99.99,,,-99.99,PWS SA v1.10,2013-01-25 11:20:00,
2013-01-25 06:25:00,11.8,-7.9,30.22,WNW,301,1.7,1.7,49,-99.99,,,-99.99,PWS SA v1.10,2013-01-25 11:25:00,
2013-01-25 06:30:00,11.7,-8.4,30.21,North,0,0.0,1.0,48,-99.99,,,-99.99,PWS SA v1.10,2013-01-25 11:30:00,
2013-01-25 06:35:00,11.4,-8.5,30.22,North,0,0.0,1.0,48,-99.99,,,-99.99,PWS SA v1.10,2013-01-25 11:35:00,
2013-01-25 06:40:00,11.7,-8.0,30.21,North,0,0.0,1.0,49,-99.99,,,-99.99,PWS SA v1.10,2013-01-25 11:40:00,
2013-01-25 06:45:00,11.4,-8.2,30.22,WSW,257,1.7,3.0,49,-99.99,,,-99.99,PWS SA v1.10,2013-01-25 11:45:00,
2013-01-25 06:50:00,11.4,-8.8,30.22,North,0,0.0,3.0,48,-99.99,,,-99.99,PWS SA v1.10,2013-01-25 11:50:00,
2013-01-25 06:55:00,11.7,-8.3,30.22,North,0,0.0,3.0,48,-99.99,,,-99.99,PWS SA v1.10,2013-01-25 11:55:00,
2013-01-25 07:00:00,11.8,-8.3,30.22,North,0,0.0,3.0,48,-99.99,,,-99.99,PWS SA v1.10,2013-01-25 12:00:00,
2013-01-25 07:05:00,11.6,-8.5,30.22,North,0,0.0,1.0,48,-99.99,,,-99.99,PWS SA v1.10,2013-01-25 12:05:00,
2013-01-25 07:10:00,11.7,-8.8,30.22,North,0,0.0,1.0,47,-99.99,,,-99.99,PWS SA v1.10,2013-01-25 12:10:00,
2013-01-25 07:15:00,11.4,-8.9,30.22,North,0,0.0,1.0,47,-99.99,,,-99.99,PWS SA v1.10,2013-01-25 12:15:00,
2013-01-25 07:20:00,11.4,-8.1,30.22,NNW,327,3.4,3.4,49,-99.99,,,-99.99,PWS SA v1.10,2013-01-25 12:20:00,
2013-01-25 07:25:00,11.2,-9.4,30.22,WNW,285,1.7,3.0,47,-99.99,,,-99.99,PWS SA v1.10,2013-01-25 12:25:00,
2013-01-25 07:30:00,11.8,-8.4,30.22,North,0,0.0,3.0,48,-99.99,,,-99.99,PWS SA v1.10,2013-01-25 12:30:00,
2013-01-25 07:40:00,11.4,-8.7,30.22,NW,309,1.7,6.0,48,-99.99,,,-99.99,PWS SA v1.10,2013-01-25 12:40:00,
2013-01-25 07:45:00,11.9,-7.8,30.22,North,0,0.0,6.0,49,-99.99,,,-99.99,PWS SA v1.10,2013-01-25 12:45:00,
2013-01-25 07:50:00,11.8,-8.5,30.22,North,0,0.0,10.0,47,-99.99,,,-99.99,PWS SA v1.10,2013-01-25 12:50:00,
2013-01-25 07:55:00,11.4,-9.2,30.23,NW,307,1.7,10.0,47,-99.99,,,-99.99,PWS SA v1.10,2013-01-25 12:55:00,
2013-01-25 08:00:00,12.0,-7.7,30.23,SW,235,1.7,10.0,49,-99.99,,,-99.99,PWS SA v1.10,2013-01-25 13:00:00,
2013-01-25 08:05:00,12.2,-8.0,30.24,WSW,253,3.4,5.0,48,-99.99,,,-99.99,PWS SA v1.10,2013-01-25 13:05:00,
2013-01-25 08:10:00,12.3,-8.4,30.23,North,0,0.0,6.0,47,-99.99,,,-99.99,PWS SA v1.10,2013-01-25 13:10:00,
2013-01-25 08:15:00,12.4,-8.2,30.24,North,0,0.0,6.0,47,-99.99,,,-99.99,PWS SA v1.10,2013-01-25 13:15:00,
2013-01-25 08:20:00,12.4,-8.2,30.24,NW,321,6.8,6.8,47,-99.99,,,-99.99,PWS SA v1.10,2013-01-25 13:20:00,
2013-01-25 08:25:00,12.7,-8.4,30.23,North,0,0.0,6.0,46,-99.99,,,-99.99,PWS SA v1.10,2013-01-25 13:25:00,
2013-01-25 08:30:00,12.8,-8.4,30.23,NW,314,1.7,6.0,45,-99.99,,,-99.99,PWS SA v1.10,2013-01-25 13:30:00,
2013-01-25 08:35:00,12.9,-8.6,30.23,North,0,0.0,5.0,45,-99.99,,,-99.99,PWS SA v1.10,2013-01-25 13:35:00,
2013-01-25 08:40:00,13.4,-8.3,30.23,North,0,0.0,5.0,45,-99.99,,,-99.99,PWS SA v1.10,2013-01-25 13:40:00,
2013-01-25 08:45:00,13.0,-9.2,30.24,North,0,0.0,5.0,43,-99.99,,,-99.99,PWS SA v1.10,2013-01-25 13:45:00,
2013-01-25 08:50:00,13.7,-8.5,30.24,North,0,0.0,5.0,43,-99.99,,,-99.99,PWS SA v1.10,2013-01-25 13:50:00,
2013-01-25 08:55:00,13.6,-8.8,30.24,NNW,327,3.4,5.0,43,-99.99,,,-99.99,PWS SA v1.10,2013-01-25 13:55:00,
2013-01-25 09:00:00,14.2,-8.3,30.24,NW,313,1.7,5.0,43,-99.99,,,-99.99,PWS SA v1.10,2013-01-25 14:00:00,
2013-01-25 09:05:00,14.3,-8.1,30.24,North,0,0.0,3.0,43,-99.99,,,-99.99,PWS SA v1.10,2013-01-25 14:05:00,
2013-01-25 09:15:00,14.5,-8.8,30.24,WSW,244,3.4,12.0,41,-99.99,,,-99.99,PWS SA v1.10,2013-01-25 14:15:00,
2013-01-25 09:20:00,15.1,-8.3,30.24,NW,314,5.1,12.0,41,-99.99,,,-99.99,PWS SA v1.10,2013-01-25 14:20:00,
2013-01-25 09:25:00,15.0,-9.1,30.24,NNW,328,6.8,8.0,40,-99.99,,,-99.99,PWS SA v1.10,2013-01-25 14:25:00,
2013-01-25 09:35:00,15.7,-8.4,30.24,North,0,0.0,8.0,40,-99.99,,,-99.99,PWS SA v1.10,2013-01-25 14:35:00,
2013-01-25 09:40:00,16.1,-8.7,30.24,North,0,0.0,8.0,39,-99.99,,,-99.99,PWS SA v1.10,2013-01-25 14:40:00,
2013-01-25 09:45:00,15.9,-9.1,30.24,NNW,328,3.4,8.0,38,-99.99,,,-99.99,PWS SA v1.10,2013-01-25 14:45:00,
2013-01-25 09:50:00,16.0,-9.4,30.25,NNW,334,8.5,8.5,37,-99.99,,,-99.99,PWS SA v1.10,2013-01-25 14:50:00,
2013-01-25 09:55:00,16.6,-9.6,30.25,NNE,18,1.7,8.0,36,-99.99,,,-99.99,PWS SA v1.10,2013-01-25 14:55:00,
2013-01-25 10:00:00,16.9,-9.2,30.25,WNW,298,1.7,8.0,36,-99.99,,,-99.99,PWS SA v1.10,2013-01-25 15:00:00,
2013-01-25 10:05:00,17.3,-8.2,30.25,West,277,3.4,8.0,38,-99.99,,,-99.99,PWS SA v1.10,2013-01-25 15:05:00,
2013-01-25 10:10:00,18.4,-7.5,30.25,North,0,0.0,3.0,37,-99.99,,,-99.99,PWS SA v1.10,2013-01-25 15:10:00,
2013-01-25 10:15:00,18.4,-9.1,30.25,North,0,0.0,5.0,34,-99.99,,,-99.99,PWS SA v1.10,2013-01-25 15:15:00,
2013-01-25 10:20:00,18.6,-8.9,30.25,North,0,0.0,5.0,34,-99.99,,,-99.99,PWS SA v1.10,2013-01-25 15:20:00,
2013-01-25 10:30:00,19.0,-8.8,30.25,NW,320,1.7,5.0,34,-99.99,,,-99.99,PWS SA v1.10,2013-01-25 15:30:00,
2013-01-25 10:35:00,19.3,-9.3,30.25,WSW,247,5.1,5.1,33,-99.99,,,-99.99,PWS SA v1.10,2013-01-25 15:35:00,
2013-01-25 10:40:00,19.5,-9.0,30.25,NNE,19,1.7,5.0,33,-99.99,,,-99.99,PWS SA v1.10,2013-01-25 15:40:00,
2013-01-25 10:50:00,20.5,-8.3,30.24,NNW,346,1.7,3.0,33,-99.99,,,-99.99,PWS SA v1.10,2013-01-25 15:50:00,
2013-01-25 11:00:00,20.5,-7.6,30.23,WNW,296,1.7,3.0,34,-99.99,,,-99.99,PWS SA v1.10,2013-01-25 16:00:00,
2013-01-25 11:05:00,19.7,-9.3,30.23,West,268,6.8,10.0,32,-99.99,,,-99.99,PWS SA v1.10,2013-01-25 16:05:00,
2013-01-25 11:10:00,20.1,-8.5,30.22,North,0,0.0,10.0,33,-99.99,,,-99.99,PWS SA v1.10,2013-01-25 16:10:00,
2013-01-25 11:15:00,20.0,-9.0,30.22,WSW,243,6.8,10.0,32,-99.99,,,-99.99,PWS SA v1.10,2013-01-25 16:15:00,
2013-01-25 11:20:00,20.4,-8.7,30.22,WSW,253,1.7,8.0,32,-99.99,,,-99.99,PWS SA v1.10,2013-01-25 16:20:00,
2013-01-25 11:30:00,21.1,-8.2,30.21,North,0,0.0,8.0,32,-99.99,,,-99.99,PWS SA v1.10,2013-01-25 16:30:00,
2013-01-25 11:35:00,22.1,-8.0,30.21,North,0,0.0,6.0,31,-99.99,,,-99.99,PWS SA v1.10,2013-01-25 16:35:00,
2013-01-25 11:45:00,22.5,-8.4,30.20,NNW,331,8.5,8.5,30,-99.99,,,-99.99,PWS SA v1.10,2013-01-25 16:45:00,
2013-01-25 11:55:00,22.2,-7.5,30.20,WSW,252,3.4,8.0,31,-99.99,,,-99.99,PWS SA v1.10,2013-01-25 16:55:00,
2013-01-25 12:00:00,22.3,-8.1,30.20,North,0,0.0,3.0,30,-99.99,,,-99.99,PWS SA v1.10,2013-01-25 17:00:00,
2013-01-25 12:05:00,22.3,-7.8,30.20,SSW,213,3.4,3.4,31,-99.99,,,-99.99,PWS SA v1.10,2013-01-25 17:05:00,
2013-01-25 12:10:00,21.9,-8.9,30.19,NW,307,1.7,6.0,30,-99.99,,,-99.99,PWS SA v1.10,2013-01-25 17:10:00,
2013-01-25 12:15:00,22.5,-7.5,30.19,North,0,0.0,6.0,31,-99.99,,,-99.99,PWS SA v1.10,2013-01-25 17:15:00,
2013-01-25 12:20:00,22.6,-8.5,30.19,West,275,3.4,6.0,29,-99.99,,,-99.99,PWS SA v1.10,2013-01-25 17:20:00,
2013-01-25 12:25:00,22.7,-8.0,30.19,North,0,0.0,6.0,30,-99.99,,,-99.99,PWS SA v1.10,2013-01-25 17:25:00,
2013-01-25 12:30:00,22.7,-9.4,30.19,North,10,3.4,10.0,28,-99.99,,,-99.99,PWS SA v1.10,2013-01-25 17:30:00,
2013-01-25 12:35:00,23.1,-8.9,30.18,West,264,5.1,10.0,28,-99.99,,,-99.99,PWS SA v1.10,2013-01-25 17:35:00,
2013-01-25 12:40:00,23.6,-8.0,30.18,ENE,57,3.4,10.0,29,-99.99,,,-99.99,PWS SA v1.10,2013-01-25 17:40:00,
2013-01-25 12:45:00,23.3,-8.8,30.18,NNW,337,6.8,11.0,28,-99.99,,,-99.99,PWS SA v1.10,2013-01-25 17:45:00,
2013-01-25 12:55:00,24.2,-8.3,30.18,North,0,0.0,11.0,28,-99.99,,,-99.99,PWS SA v1.10,2013-01-25 17:55:00,
2013-01-25 13:00:00,24.2,-7.9,30.17,NW,307,3.4,12.0,28,-99.99,,,-99.99,PWS SA v1.10,2013-01-25 18:00:00,
2013-01-25 13:05:00,24.4,-8.4,30.17,NW,311,3.4,12.0,27,-99.99,,,-99.99,PWS SA v1.10,2013-01-25 18:05:00,
2013-01-25 13:10:00,25.3,-7.4,30.16,NNW,329,1.7,12.0,28,-99.99,,,-99.99,PWS SA v1.10,2013-01-25 18:10:00,
2013-01-25 13:15:00,24.9,-7.6,30.16,North,0,0.0,5.0,28,-99.99,,,-99.99,PWS SA v1.10,2013-01-25 18:15:00,
2013-01-25 13:20:00,24.8,-7.8,30.16,West,264,8.5,8.5,28,-99.99,,,-99.99,PWS SA v1.10,2013-01-25 18:20:00,
2013-01-25 13:30:00,25.8,-6.6,30.15,North,0,0.0,8.0,28,-99.99,,,-99.99,PWS SA v1.10,2013-01-25 18:30:00,
2013-01-25 13:40:00,26.3,-6.4,30.14,North,0,0.0,3.0,28,-99.99,,,-99.99,PWS SA v1.10,2013-01-25 18:40:00,
2013-01-25 13:45:00,25.8,-7.0,30.14,NNW,327,3.4,5.0,28,-99.99,,,-99.99,PWS SA v1.10,2013-01-25 18:45:00,
2013-01-25 13:50:00,25.6,-8.3,30.13,NW,326,10.2,10.2,26,-99.99,,,-99.99,PWS SA v1.10,2013-01-25 18:50:00,
2013-01-25 13:55:00,26.2,-8.0,30.13,North,0,0.0,10.0,26,-99.99,,,-99.99,PWS SA v1.10,2013-01-25 18:55:00,
2013-01-25 14:00:00,26.0,-6.7,30.13,SSW,209,3.4,10.0,28,-99.99,,,-99.99,PWS SA v1.10,2013-01-25 19:00:00,
2013-01-25 14:05:00,26.4,-7.3,30.13,North,0,0.0,3.0,26,-99.99,,,-99.99,PWS SA v1.10,2013-01-25 19:05:00,
2013-01-25 14:10:00,26.5,-5.8,30.13,WSW,255,3.4,3.4,28,-99.99,,,-99.99,PWS SA v1.10,2013-01-25 19:10:00,
2013-01-25 14:15:00,26.6,-7.5,30.12,NNW,343,6.8,6.8,26,-99.99,,,-99.99,PWS SA v1.10,2013-01-25 19:15:00,
2013-01-25 14:20:00,27.1,-6.4,30.12,NNW,332,3.4,6.0,27,-99.99,,,-99.99,PWS SA v1.10,2013-01-25 19:20:00,
2013-01-25 14:25:00,26.7,-8.3,30.12,WNW,290,3.4,6.0,25,-99.99,,,-99.99,PWS SA v1.10,2013-01-25 19:25:00,
2013-01-25 14:30:00,26.8,-9.3,30.11,North,0,0.0,6.0,24,-99.99,,,-99.99,PWS SA v1.10,2013-01-25 19:30:00,
2013-01-25 14:35:00,27.5,-6.6,30.11,North,0,0.0,6.0,26,-99.99,,,-99.99,PWS SA v1.10,2013-01-25 19:35:00,
2013-01-25 14:40:00,27.2,-7.0,30.11,WSW,248,6.8,6.8,26,-99.99,,,-99.99,PWS SA v1.10,2013-01-25 19:40:00,
2013-01-25 14:45:00,27.6,-1.7,30.11,North,0,0.0,6.0,27,-99.99,,,-99.99,PWS SA v1.10,2013-01-25 19:45:00,
2013-01-25 14:50:00,27.4,-7.6,30.11,North,0,0.0,6.0,25,-99.99,,,-99.99,PWS SA v1.10,2013-01-25 19:50:00,
2013-01-25 15:00:00,27.3,-4.7,30.11,North,0,0.0,6.0,29,-99.99,,,-99.99,PWS SA v1.10,2013-01-25 20:00:00,
2013-01-25 15:05:00,27.8,-1.8,30.11,NNW,327,1.7,6.0,27,-99.99,,,-99.99,PWS SA v1.10,2013-01-25 20:05:00,
2013-01-25 15:10:00,28.2,-1.3,30.11,North,0,0.0,6.0,27,-99.99,,,-99.99,PWS SA v1.10,2013-01-25 20:10:00,
2013-01-25 15:15:00,28.9,1.0,30.10,North,0,0.0,6.0,29,-99.99,,,-99.99,PWS SA v1.10,2013-01-25 20:15:00,
2013-01-25 15:20:00,29.1,-0.6,30.11,North,0,0.0,3.0,27,-99.99,,,-99.99,PWS SA v1.10,2013-01-25 20:20:00,
2013-01-25 15:25:00,28.3,-1.9,30.11,North,0,0.0,3.0,27,-99.99,,,-99.99,PWS SA v1.10,2013-01-25 20:25:00,
2013-01-25 15:30:00,27.9,-0.8,30.11,North,0,0.0,3.0,28,-99.99,,,-99.99,PWS SA v1.10,2013-01-25 20:30:00,
2013-01-25 15:35:00,27.3,-4.6,30.11,North,0,0.0,3.0,29,-99.99,,,-99.99,PWS SA v1.10,2013-01-25 20:35:00,
2013-01-25 15:40:00,26.9,-5.1,30.11,NW,316,1.7,3.0,29,-99.99,,,-99.99,PWS SA v1.10,2013-01-25 20:40:00,
2013-01-25 15:45:00,27.0,-4.9,30.11,North,0,0.0,5.0,29,-99.99,,,-99.99,PWS SA v1.10,2013-01-25 20:45:00,
2013-01-25 15:50:00,26.4,-4.8,30.10,West,269,3.4,5.0,30,-99.99,,,-99.99,PWS SA v1.10,2013-01-25 20:50:00,
2013-01-25 15:55:00,26.0,-7.4,30.10,North,0,0.0,8.0,27,-99.99,,,-99.99,PWS SA v1.10,2013-01-25 20:55:00,
2013-01-25 16:00:00,26.5,-5.5,30.11,North,0,0.0,8.0,29,-99.99,,,-99.99,PWS SA v1.10,2013-01-25 21:00:00,
2013-01-25 16:05:00,26.4,-3.4,30.11,West,277,3.4,8.0,32,-99.99,,,-99.99,PWS SA v1.10,2013-01-25 21:05:00,
2013-01-25 16:10:00,26.5,-4.8,30.10,WSW,252,1.7,3.0,30,-99.99,,,-99.99,PWS SA v1.10,2013-01-25 21:10:00,
2013-01-25 16:15:00,26.6,-4.4,30.11,North,0,0.0,3.0,30,-99.99,,,-99.99,PWS SA v1.10,2013-01-25 21:15:00,
2013-01-25 16:20:00,26.4,-2.9,30.10,WNW,289,1.7,3.0,33,-99.99,,,-99.99,PWS SA v1.10,2013-01-25 21:20:00,
2013-01-25 16:30:00,25.9,-4.4,30.10,North,0,0.0,5.0,31,-99.99,,,-99.99,PWS SA v1.10,2013-01-25 21:30:00,
2013-01-25 16:35:00,25.6,-4.7,30.10,North,0,0.0,5.0,31,-99.99,,,-99.99,PWS SA v1.10,2013-01-25 21:35:00,
2013-01-25 16:40:00,25.4,-5.0,30.09,North,0,0.0,1.0,31,-99.99,,,-99.99,PWS SA v1.10,2013-01-25 21:40:00,
2013-01-25 16:45:00,25.1,-4.2,30.10,WNW,288,3.4,3.4,32,-99.99,,,-99.99,PWS SA v1.10,2013-01-25 21:45:00,
2013-01-25 16:50:00,24.6,-6.2,30.10,WNW,298,1.7,3.0,30,-99.99,,,-99.99,PWS SA v1.10,2013-01-25 21:50:00,
2013-01-25 16:55:00,24.9,-4.7,30.10,North,0,0.0,3.0,32,-99.99,,,-99.99,PWS SA v1.10,2013-01-25 21:55:00,
2013-01-25 17:00:00,25.2,-4.8,30.10,North,0,0.0,3.0,31,-99.99,,,-99.99,PWS SA v1.10,2013-01-25 22:00:00,
2013-01-25 17:05:00,25.4,-4.3,30.11,North,0,0.0,1.0,32,-99.99,,,-99.99,PWS SA v1.10,2013-01-25 22:05:00,
2013-01-25 17:10:00,25.5,-4.2,30.11,North,0,0.0,1.0,32,-99.99,,,-99.99,PWS SA v1.10,2013-01-25 22:10:00,
2013-01-25 17:15:00,25.6,-2.8,30.10,SW,215,1.7,1.7,34,-99.99,,,-99.99,PWS SA v1.10,2013-01-25 22:15:00,
2013-01-25 17:20:00,25.4,-3.0,30.11,WNW,292,3.4,3.4,34,-99.99,,,-99.99,PWS SA v1.10,2013-01-25 22:20:00,
2013-01-25 17:25:00,25.3,-3.8,30.11,North,0,0.0,3.0,33,-99.99,,,-99.99,PWS SA v1.10,2013-01-25 22:25:00,
2013-01-25 17:30:00,25.4,-3.8,30.10,North,0,0.0,3.0,33,-99.99,,,-99.99,PWS SA v1.10,2013-01-25 22:30:00,
2013-01-25 17:35:00,25.3,-3.4,30.10,North,0,0.0,1.0,34,-99.99,,,-99.99,PWS SA v1.10,2013-01-25 22:35:00,
2013-01-25 17:40:00,25.4,-3.1,30.10,North,0,0.0,0.0,34,-99.99,,,-99.99,PWS SA v1.10,2013-01-25 22:40:00,
2013-01-25 17:45:00,25.0,-4.0,30.10,SW,230,1.7,1.7,33,-99.99,,,-99.99,PWS SA v1.10,2013-01-25 22:45:00,
2013-01-25 17:50:00,25.3,-3.8,30.09,WNW,284,1.7,1.7,33,-99.99,,,-99.99,PWS SA v1.10,2013-01-25 22:50:00,
2013-01-25 17:55:00,25.4,-2.9,30.10,North,0,0.0,1.0,34,-99.99,,,-99.99,PWS SA v1.10,2013-01-25 22:55:00,
2013-01-25 18:00:00,25.5,-3.5,30.09,North,0,0.0,1.0,33,-99.99,,,-99.99,PWS SA v1.10,2013-01-25 23:00:00,
2013-01-25 18:05:00,25.5,-2.7,30.09,North,0,0.0,0.0,34,-99.99,,,-99.99,PWS SA v1.10,2013-01-25 23:05:00,
2013-01-25 18:10:00,25.5,-2.1,30.09,North,0,0.0,0.0,35,-99.99,,,-99.99,PWS SA v1.10,2013-01-25 23:10:00,
2013-01-25 18:15:00,25.6,-2.8,30.09,North,0,0.0,0.0,34,-99.99,,,-99.99,PWS SA v1.10,2013-01-25 23:15:00,
2013-01-25 18:20:00,25.6,-1.8,30.09,North,0,0.0,0.0,36,-99.99,,,-99.99,PWS SA v1.10,2013-01-25 23:20:00,
2013-01-25 18:25:00,25.5,-1.5,30.09,North,0,0.0,0.0,36,-99.99,,,-99.99,PWS SA v1.10,2013-01-25 23:25:00,
2013-01-25 18:30:00,25.2,-2.6,30.09,North,0,0.0,0.0,35,-99.99,,,-99.99,PWS SA v1.10,2013-01-25 23:30:00,
2013-01-25 18:35:00,25.3,-3.6,30.08,NW,317,1.7,1.7,33,-99.99,,,-99.99,PWS SA v1.10,2013-01-25 23:35:00,
2013-01-25 18:40:00,25.0,-2.4,30.08,North,0,0.0,1.0,36,-99.99,,,-99.99,PWS SA v1.10,2013-01-25 23:40:00,
2013-01-25 18:45:00,25.0,-2.6,30.08,North,0,0.0,1.0,35,-99.99,,,-99.99,PWS SA v1.10,2013-01-25 23:45:00,
2013-01-25 18:50:00,25.3,-2.1,30.08,North,0,0.0,0.0,36,-99.99,,,-99.99,PWS SA v1.10,2013-01-25 23:50:00,
2013-01-25 18:55:00,25.4,-2.6,30.08,North,0,0.0,0.0,35,-99.99,,,-99.99,PWS SA v1.10,2013-01-25 23:55:00,
2013-01-25 19:00:00,25.5,-1.3,30.08,North,0,0.0,0.0,37,-99.99,,,-99.99,PWS SA v1.10,2013-01-26 00:00:00,
2013-01-25 19:05:00,25.4,-1.9,30.08,North,0,0.0,0.0,36,-99.99,,,-99.99,PWS SA v1.10,2013-01-26 00:05:00,
2013-01-25 19:10:00,25.3,-2.7,30.08,North,0,0.0,0.0,35,-99.99,,,-99.99,PWS SA v1.10,2013-01-26 00:10:00,
2013-01-25 19:15:00,25.4,-1.4,30.08,WSW,250,3.4,3.4,37,-99.99,,,-99.99,PWS SA v1.10,2013-01-26 00:15:00,
2013-01-25 19:20:00,25.1,-2.3,30.08,WSW,256,1.7,3.0,36,-99.99,,,-99.99,PWS SA v1.10,2013-01-26 00:20:00,
2013-01-25 19:25:00,25.3,-2.0,30.08,North,0,0.0,3.0,36,-99.99,,,-99.99,PWS SA v1.10,2013-01-26 00:25:00,
2013-01-25 19:30:00,24.8,-3.4,30.08,SW,233,1.7,1.7,34,-99.99,,,-99.99,PWS SA v1.10,2013-01-26 00:30:00,
2013-01-25 19:35:00,24.6,-4.0,30.08,North,0,0.0,1.0,34,-99.99,,,-99.99,PWS SA v1.10,2013-01-26 00:35:00,
2013-01-25 19:40:00,24.7,-2.4,30.07,North,0,0.0,1.0,36,-99.99,,,-99.99,PWS SA v1.10,2013-01-26 00:40:00,
2013-01-25 19:45:00,24.8,-3.7,30.06,North,0,0.0,1.0,34,-99.99,,,-99.99,PWS SA v1.10,2013-01-26 00:45:00,
2013-01-25 19:50:00,25.0,-1.8,30.07,North,0,0.0,1.0,37,-99.99,,,-99.99,PWS SA v1.10,2013-01-26 00:50:00,
2013-01-25 19:55:00,25.0,-1.3,30.07,North,0,0.0,0.0,38,-99.99,,,-99.99,PWS SA v1.10,2013-01-26 00:55:00,
2013-01-25 20:00:00,24.9,-2.0,30.06,North,0,0.0,0.0,36,-99.99,,,-99.99,PWS SA v1.10,2013-01-26 01:00:00,
2013-01-25 20:05:00,24.9,-2.5,30.06,North,0,0.0,0.0,36,-99.99,,,-99.99,PWS SA v1.10,2013-01-26 01:05:00,
2013-01-25 20:10:00,24.9,-2.1,30.06,West,276,1.7,1.7,36,-99.99,,,-99.99,PWS SA v1.10,2013-01-26 01:10:00,
2013-01-25 20:15:00,24.9,-2.5,30.05,North,0,0.0,1.0,36,-99.99,,,-99.99,PWS SA v1.10,2013-01-26 01:15:00,
2013-01-25 20:20:00,24.7,-2.8,30.05,North,0,0.0,1.0,35,-99.99,,,-99.99,PWS SA v1.10,2013-01-26 01:20:00,
2013-01-25 20:25:00,24.8,-1.3,30.05,North,0,0.0,0.0,38,-99.99,,,-99.99,PWS SA v1.10,2013-01-26 01:25:00,
2013-01-25 20:30:00,24.8,-2.0,30.05,North,0,0.0,0.0,37,-99.99,,,-99.99,PWS SA v1.10,2013-01-26 01:30:00,
2013-01-25 20:35:00,25.0,-0.6,30.05,North,0,0.0,0.0,39,-99.99,,,-99.99,PWS SA v1.10,2013-01-26 01:35:00,
2013-01-25 20:40:00,25.0,-1.0,30.05,North,0,0.0,0.0,38,-99.99,,,-99.99,PWS SA v1.10,2013-01-26 01:40:00,
2013-01-25 20:45:00,25.0,-0.3,30.05,North,0,0.0,0.0,39,-99.99,,,-99.99,PWS SA v1.10,2013-01-26 01:45:00,
2013-01-25 20:50:00,25.1,-0.6,30.05,North,0,0.0,0.0,39,-99.99,,,-99.99,PWS SA v1.10,2013-01-26 01:50:00,
2013-01-25 20:55:00,25.0,-0.3,30.05,North,0,0.0,0.0,39,-99.99,,,-99.99,PWS SA v1.10,2013-01-26 01:55:00,
2013-01-25 21:00:00,25.0,0.0,30.05,North,0,0.0,0.0,40,-99.99,,,-99.99,PWS SA v1.10,2013-01-26 02:00:00,
2013-01-25 21:05:00,25.1,-0.1,30.05,North,0,0.0,0.0,39,-99.99,,,-99.99,PWS SA v1.10,2013-01-26 02:05:00,
2013-01-25 21:10:00,25.1,-0.7,30.05,North,0,0.0,0.0,38,-99.99,,,-99.99,PWS SA v1.10,2013-01-26 02:10:00,
2013-01-25 21:15:00,24.6,-0.6,30.05,North,0,0.0,1.0,40,-99.99,,,-99.99,PWS SA v1.10,2013-01-26 02:15:00,
2013-01-25 21:20:00,23.9,2.7,30.05,North,0,0.0,3.0,47,-99.99,,,-99.99,PWS SA v1.10,2013-01-26 02:20:00,
2013-01-25 21:25:00,23.9,5.2,30.04,North,0,0.0,3.0,53,-99.99,,,-99.99,PWS SA v1.10,2013-01-26 02:25:00,
2013-01-25 21:30:00,23.7,6.2,30.04,North,0,0.0,3.0,56,-99.99,,,-99.99,PWS SA v1.10,2013-01-26 02:30:00,
2013-01-25 21:35:00,23.1,6.7,30.05,North,0,0.0,1.0,59,-99.99,,,-99.99,PWS SA v1.10,2013-01-26 02:35:00,
2013-01-25 21:40:00,23.1,7.4,30.05,North,0,0.0,1.0,61,-99.99,,,-99.99,PWS SA v1.10,2013-01-26 02:40:00,
2013-01-25 21:45:00,23.5,8.3,30.04,North,0,0.0,0.0,62,-99.99,,,-99.99,PWS SA v1.10,2013-01-26 02:45:00,
2013-01-25 21:50:00,23.3,8.6,30.04,North,0,0.0,0.0,64,-99.99,,,-99.99,PWS SA v1.10,2013-01-26 02:50:00,
2013-01-25 21:55:00,23.3,9.0,30.04,North,0,0.0,0.0,65,-99.99,,,-99.99,PWS SA v1.10,2013-01-26 02:55:00,
2013-01-25 22:00:00,22.9,9.2,30.04,North,0,0.0,1.0,67,-99.99,,,-99.99,PWS SA v1.10,2013-01-26 03:00:00,
2013-01-25 22:05:00,22.9,9.7,30.04,North,0,0.0,1.0,68,-99.99,,,-99.99,PWS SA v1.10,2013-01-26 03:05:00,
2013-01-25 22:10:00,22.8,9.9,30.03,North,0,0.0,1.0,69,-99.99,,,-99.99,PWS SA v1.10,2013-01-26 03:10:00,
2013-01-25 22:15:00,22.7,10.2,30.03,North,0,0.0,0.0,70,-99.99,,,-99.99,PWS SA v1.10,2013-01-26 03:15:00,
2013-01-25 22:20:00,22.6,10.4,30.03,North,0,0.0,0.0,71,-99.99,,,-99.99,PWS SA v1.10,2013-01-26 03:20:00,
2013-01-25 22:25:00,22.4,10.2,30.03,North,0,0.0,0.0,71,-99.99,,,-99.99,PWS SA v1.10,2013-01-26 03:25:00,
2013-01-25 22:30:00,22.4,10.2,30.02,North,0,0.0,0.0,71,-99.99,,,-99.99,PWS SA v1.10,2013-01-26 03:30:00,
2013-01-25 22:35:00,22.3,10.3,30.02,North,0,0.0,0.0,72,-99.99,,,-99.99,PWS SA v1.10,2013-01-26 03:35:00,
2013-01-25 22:40:00,22.4,10.7,30.02,North,0,0.0,0.0,73,-99.99,,,-99.99,PWS SA v1.10,2013-01-26 03:40:00,
2013-01-25 22:45:00,22.4,10.4,30.02,North,0,0.0,0.0,72,-99.99,,,-99.99,PWS SA v1.10,2013-01-26 03:45:00,
2013-01-25 22:50:00,22.2,10.3,30.02,North,0,0.0,0.0,72,-99.99,,,-99.99,PWS SA v1.10,2013-01-26 03:50:00,
2013-01-25 22:55:00,22.2,10.9,30.02,North,0,0.0,0.0,74,-99.99,,,-99.99,PWS SA v1.10,2013-01-26 03:55:00,
2013-01-25 23:00:00,22.2,10.7,30.03,North,0,0.0,0.0,74,-99.99,,,-99.99,PWS SA v1.10,2013-01-26 04:00:00,
2013-01-25 23:05:00,22.2,10.8,30.03,North,0,0.0,0.0,74,-99.99,,,-99.99,PWS SA v1.10,2013-01-26 04:05:00,
2013-01-25 23:10:00,22.2,10.9,30.02,North,0,0.0,0.0,74,-99.99,,,-99.99,PWS SA v1.10,2013-01-26 04:10:00,
2013-01-25 23:15:00,22.3,11.0,30.02,North,0,0.0,0.0,74,-99.99,,,-99.99,PWS SA v1.10,2013-01-26 04:15:00,
2013-01-25 23:20:00,22.3,11.0,30.03,North,0,0.0,0.0,74,-99.99,,,-99.99,PWS SA v1.10,2013-01-26 04:20:00,
2013-01-25 23:25:00,22.4,11.4,30.03,North,0,0.0,0.0,75,-99.99,,,-99.99,PWS SA v1.10,2013-01-26 04:25:00,
2013-01-25 23:30:00,22.4,11.4,30.02,North,0,0.0,0.0,75,-99.99,,,-99.99,PWS SA v1.10,2013-01-26 04:30:00,
2013-01-25 23:35:00,22.6,11.5,30.02,North,0,0.0,0.0,75,-99.99,,,-99.99,PWS SA v1.10,2013-01-26 04:35:00,
2013-01-25 23:40:00,22.4,11.4,30.02,North,0,0.0,0.0,75,-99.99,,,-99.99,PWS SA v1.10,2013-01-26 04:40:00,
2013-01-25 23:45:00,22.4,11.4,30.02,North,0,0.0,0.0,75,-99.99,,,-99.99,PWS SA v1.10,2013-01-26 04:45:00,
2013-01-25 23:50:00,22.3,11.4,30.02,North,0,0.0,0.0,75,-99.99,,,-99.99,PWS SA v1.10,2013-01-26 04:50:00,
2013-01-25 23:55:00,22.3,11.6,30.01,North,0,0.0,0.0,76,-99.99,,,-99.99,PWS SA v1.10,2013-01-26 04:55:00,